Weather History for Camarillo, CA

Change the Weather History Date:

Sunday, December 25, 2011

  Actual Average Record
Temperature  
Mean Temperature 58 °F 54 °F  
Max Temperature 77 °F 65 °F 84 °F (1989)
Min Temperature 39 °F 42 °F 33 °F (1966)
Degree Days  
Heating Degree Days 7 11  
Month to date heating degree days 301 284  
Since 1 July heating degree days 513 616  
Cooling Degree Days 0 0  
Month to date cooling degree days 0 0  
Year to date cooling degree days 501 330  
Growing Degree Days 8 (Base 50)    
Moisture  
Dew Point 26 °F    
Average Humidity 43    
Maximum Humidity 77    
Minimum Humidity 9    
Precipitation  
Precipitation 0.00 in 0.08 in 2.00 in (1979)
Month to date precipitation 0.25 1.26  
Year to date precipitation 13.26 14.42  
Since 1 July precipitation 3.03 3.44  
Sea Level Pressure  
Sea Level Pressure 30.29 in    
Wind  
Wind Speed 4 mph (NNW)    
Max Wind Speed 14 mph    
Max Gust Speed 16 mph    
Visibility 10 miles    
Events      
T = Trace of Precipitation, MM = Missing Value Source: NWS Daily Summary

Daily Weather History Graph

Daily Weather History Graph

Search for Another Location

Airport:

Trip Planner

Search our weather history database for the weather conditions in past years. The results will help you decide how hot, cold, wet, or windy it might be!

Date:

Astronomy

Dec. 25, 2011 Rise Set
Actual Time 7:00 AM PST 4:52 PM PST
Civil Twilight 6:32 AM PST 5:20 PM PST
Nautical Twilight 6:00 AM PST 5:51 PM PST
Astronomical Twilight 5:30 AM PST 6:22 PM PST
Moon 7:44 AM PST (12/25) 6:16 PM PST (12/25)
Length of Visible Light 10h 48m
Length of Day
9h 52m
New Moon, 2% of the Moon is Illuminated
Dec 25
New Moon
Dec 31
First Quarter
Jan 8
Full
Jan 16
Last Quarter
Jan 22
New

Hourly Weather History & Observations

Time (PST) Temp. Windchill Dew Point Humidity Pressure Visibility Wind Dir Wind Speed Gust Speed Precip Events Conditions
1:55 AM 51.1 °F - 14.0 °F 23% 30.35 in 10.0 mi East 4.6 mph - N/A   Clear
2:55 AM 44.1 °F 41.5 °F 19.9 °F 38% 30.34 in 10.0 mi Variable 4.6 mph - N/A   Clear
3:55 AM 45.0 °F 42.6 °F 19.0 °F 36% 30.33 in 10.0 mi NE 4.6 mph - N/A   Clear
4:55 AM 42.1 °F - 21.9 °F 45% 30.33 in 10.0 mi Calm Calm - N/A   Clear
5:55 AM 43.0 °F 41.3 °F 21.0 °F 42% 30.33 in 10.0 mi NNE 3.5 mph - N/A   Clear
6:55 AM 44.1 °F - 19.9 °F 38% 30.35 in 10.0 mi Calm Calm - N/A   Clear
7:55 AM 50.0 °F - 19.9 °F 31% 30.35 in 10.0 mi Calm Calm - N/A   Clear
8:55 AM 57.9 °F - 24.1 °F 27% 30.36 in 10.0 mi NW 6.9 mph - N/A   Clear
9:55 AM 69.1 °F - 19.9 °F 15% 30.36 in 10.0 mi NNW 4.6 mph - N/A   Clear
10:55 AM 71.1 °F - 28.0 °F 20% 30.33 in 10.0 mi ESE 3.5 mph - N/A   Clear
11:55 AM 75.0 °F - 19.9 °F 13% 30.29 in 10.0 mi NW 5.8 mph - N/A   Clear
12:55 PM 75.9 °F - 12.9 °F 9% 30.26 in 10.0 mi WNW 8.1 mph - N/A   Clear
1:55 PM 75.0 °F - 18.0 °F 12% 30.24 in 10.0 mi West 11.5 mph - N/A   Clear
2:55 PM 69.1 °F - 33.1 °F 26% 30.24 in 10.0 mi West 8.1 mph - N/A   Clear
3:55 PM 64.9 °F - 33.1 °F 31% 30.24 in 10.0 mi West 4.6 mph - N/A   Clear
4:55 PM 60.1 °F - 39.9 °F 47% 30.24 in 10.0 mi SSW 4.6 mph - N/A   Clear
5:55 PM 54.0 °F - 46.9 °F 77% 30.25 in 10.0 mi Calm Calm - N/A   Clear
7:55 PM 51.1 °F - 35.1 °F 54% 30.24 in 10.0 mi ENE 4.6 mph - N/A   Clear
8:55 PM 50.0 °F - 34.0 °F 54% 30.24 in 10.0 mi NNE 5.8 mph - N/A   Clear
9:55 PM 44.1 °F - 32.0 °F 63% 30.24 in 10.0 mi Calm Calm - N/A   Clear
10:55 PM 44.1 °F - 30.9 °F 60% 30.23 in 10.0 mi Calm Calm - N/A   Clear
11:55 PM 46.0 °F 44.8 °F 28.9 °F 51% 30.22 in 10.0 mi ESE 3.5 mph - N/A   Clear